Retour au catalogue

STARLINK-30053

ActifCommunicationsVLEO
NORAD 56700·PAYLOAD·🇺🇸 United States

Lancé May 19, 2023 depuis Cape Canaveral Space Force Station

Loading…

Prochains Passages (prochaines 24 heures)

TLE

FraisSource: CelesTrak SupGP

Époque: Sep 15, 2026, 03:09 UTC

1 56700C 23067N   26258.13173611 -.00000201  00000+0 -72873-5 0  2586
2 56700  43.0004 281.2483 0001617 261.0218  45.4978 15.27577462    18

Suivez STARLINK-30053 en temps réel avec AllMySat

Download on the App Store